When you browse on this site, cookies collect data to enhance your experience and personalize the content and advertising you see.
Visit our Privacy Policy to learn more. By continuing to use the site, you agree to this use of cookies and data.
  • In United Kingdom
  • List of Countries
  • For 7 days
  • Water Temperature
  • Satellite Maps
  • Weather Map
  • Weather Widgets
  • user-avatar
    Login

    Hourly Weather Tatabanya

    Today, 21 April, Sunday

    Time Temperature Precipitation Wind Pressure Humidity
    00:00 +10°C° 0 mm 2 mps 747 mmHg 54%
    01:00 +10°C° 0 mm 2 mps 747 mmHg 55%
    02:00 +9°C° 0 mm 2 mps 747 mmHg 57%
    03:00 +9°C° 0 mm 2 mps 747 mmHg 58%
    04:00 +8°C° 0 mm 2 mps 746 mmHg 59%
    05:00 +9°C° 0 mm 2 mps 746 mmHg 58%
    06:00 +10°C° 0 mm 2 mps 746 mmHg 58%
    07:00 +12°C° 0 mm 2 mps 746 mmHg 57%
    08:00 +14°C° 0 mm 2 mps 746 mmHg 52%
    09:00 +16°C° 0 mm 2 mps 746 mmHg 47%
    10:00 +18°C° 0 mm 3 mps 746 mmHg 42%
    11:00 +19°C° 0 mm 3 mps 745 mmHg 40%
    12:00 +20°C° 0 mm 3 mps 745 mmHg 38%
    13:00 +20°C° 0 mm 4 mps 745 mmHg 36%
    14:00 +20°C° 0 mm 3 mps 744 mmHg 36%
    15:00 +20°C° 0 mm 3 mps 744 mmHg 37%
    16:00 +20°C° 0 mm 3 mps 743 mmHg 38%
    17:00 +18°C° 0 mm 3 mps 743 mmHg 43%
    18:00 +16°C° 0 mm 2 mps 743 mmHg 48%
    19:00 +14°C° 0 mm 1 mps 743 mmHg 53%
    20:00 +14°C° 0 mm 1 mps 743 mmHg 54%
    21:00 +13°C° 0 mm 1 mps 743 mmHg 55%
    22:00 +12°C° 0 mm 1 mps 743 mmHg 57%
    23:00 +12°C° 0 mm 1 mps 743 mmHg 59%

    Tomorrow, 22 April, Monday

    Time Temperature Precipitation Wind Pressure Humidity
    00:00 +11°C° 0 mm 1 mps 742 mmHg 62%
    01:00 +10°C° 0 mm 0 mps 742 mmHg 64%
    02:00 +9°C° 0 mm 0 mps 742 mmHg 66%
    03:00 +9°C° 0 mm 0 mps 741 mmHg 67%
    04:00 +8°C° 0 mm 0 mps 741 mmHg 69%
    05:00 +11°C° 0 mm 1 mps 741 mmHg 66%
    06:00 +12°C° 0 mm 1 mps 741 mmHg 64%
    07:00 +13°C° 0 mm 1 mps 741 mmHg 61%
    08:00 +14°C° 0 mm 2 mps 740 mmHg 61%
    09:00 +14°C° 0 mm 2 mps 740 mmHg 61%
    10:00 +15°C° 0 mm 2 mps 740 mmHg 61%
    11:00 +16°C° 0 mm 3 mps 740 mmHg 55%
    12:00 +18°C° 0 mm 4 mps 739 mmHg 50%
    13:00 +19°C° 0 mm 5 mps 739 mmHg 44%
    14:00 +19°C° 0 mm 4 mps 739 mmHg 44%
    15:00 +19°C° 0 mm 4 mps 738 mmHg 45%
    16:00 +19°C° 0 mm 4 mps 738 mmHg 46%
    17:00 +16°C° 0 mm 5 mps 738 mmHg 53%
    18:00 +15°C° 0 mm 6 mps 737 mmHg 60%
    19:00 +12°C° 0 mm 7 mps 737 mmHg 68%
    20:00 +12°C° 0 mm 7 mps 737 mmHg 71%
    21:00 +11°C° 0 mm 6 mps 738 mmHg 75%
    22:00 +10°C° 0 mm 6 mps 738 mmHg 79%
    23:00 +10°C° 0 mm 7 mps 738 mmHg 77%

    Day after tomorrow, 23 April, Tuesday

    Time Temperature Precipitation Wind Pressure Humidity
    00:00 +10°C° 0 mm 7 mps 738 mmHg 75%
    01:00 +10°C° 0 mm 7 mps 738 mmHg 73%
    02:00 +10°C° 0 mm 7 mps 738 mmHg 72%
    03:00 +10°C° 0 mm 7 mps 738 mmHg 70%
    04:00 +10°C° 0 mm 7 mps 738 mmHg 69%
    05:00 +9°C° 0.9 mm 7 mps 738 mmHg 76%
    06:00 +9°C° 0.9 mm 7 mps 738 mmHg 82%
    07:00 +8°C° 0.9 mm 7 mps 738 mmHg 89%
    08:00 +8°C° 1.4 mm 7 mps 738 mmHg 89%
    09:00 +7°C° 1.4 mm 8 mps 738 mmHg 90%
    10:00 +7°C° 1.4 mm 8 mps 738 mmHg 90%
    11:00 +7°C° 1.3 mm 8 mps 738 mmHg 89%
    12:00 +7°C° 1.3 mm 8 mps 738 mmHg 88%
    13:00 +7°C° 1.3 mm 8 mps 738 mmHg 87%
    14:00 +9°C° 0.1 mm 8 mps 738 mmHg 86%
    15:00 +9°C° 0.1 mm 8 mps 738 mmHg 85%
    16:00 +10°C° 0.1 mm 8 mps 737 mmHg 85%
    17:00 +10°C° 0.7 mm 8 mps 737 mmHg 85%
    18:00 +9°C° 0.7 mm 8 mps 737 mmHg 86%
    19:00 +8°C° 0.7 mm 9 mps 737 mmHg 86%
    20:00 +9°C° 2.2 mm 8 mps 737 mmHg 87%
    21:00 +9°C° 2.2 mm 8 mps 738 mmHg 88%
    22:00 +9°C° 2.2 mm 8 mps 738 mmHg 90%
    23:00 +9°C° 0 mm 7 mps 738 mmHg 90%

    24 April, Wednesday

    Time Temperature Precipitation Wind Pressure Humidity
    00:00 +9°C° 0 mm 7 mps 738 mmHg 89%
    01:00 +8°C° 0 mm 6 mps 738 mmHg 89%
    02:00 +8°C° 0 mm 6 mps 738 mmHg 91%
    03:00 +8°C° 0 mm 6 mps 738 mmHg 92%
    04:00 +8°C° 0 mm 5 mps 739 mmHg 93%
    05:00 +9°C° 0.1 mm 6 mps 739 mmHg 92%
    06:00 +10°C° 0.1 mm 6 mps 739 mmHg 91%
    07:00 +10°C° 0.1 mm 6 mps 740 mmHg 90%
    08:00 +12°C° 0 mm 7 mps 740 mmHg 84%
    09:00 +15°C° 0 mm 7 mps 740 mmHg 79%
    10:00 +17°C° 0 mm 7 mps 741 mmHg 74%
    11:00 +18°C° 0.4 mm 7 mps 741 mmHg 71%
    12:00 +20°C° 0.4 mm 7 mps 741 mmHg 68%
    13:00 +21°C° 0.4 mm 7 mps 741 mmHg 65%
    14:00 +21°C° 0.7 mm 7 mps 741 mmHg 66%
    15:00 +21°C° 0.7 mm 6 mps 740 mmHg 68%
    16:00 +21°C° 0.7 mm 6 mps 740 mmHg 69%
    17:00 +20°C° 0.2 mm 5 mps 740 mmHg 74%
    18:00 +17°C° 0.2 mm 5 mps 740 mmHg 78%
    19:00 +17°C° 0.2 mm 4 mps 740 mmHg 83%
    20:00 +15°C° 0 mm 4 mps 741 mmHg 83%
    21:00 +15°C° 0 mm 5 mps 741 mmHg 83%
    22:00 +14°C° 0 mm 5 mps 741 mmHg 83%
    23:00 +14°C° 0 mm 5 mps 741 mmHg 85%

    25 April, Thursday

    Time Temperature Precipitation Wind Pressure Humidity
    00:00 +13°C° 0 mm 4 mps 741 mmHg 87%
    01:00 +12°C° 0 mm 4 mps 741 mmHg 89%
    02:00 +12°C° 0 mm 4 mps 741 mmHg 90%
    03:00 +12°C° 0 mm 4 mps 741 mmHg 91%
    04:00 +12°C° 0 mm 4 mps 741 mmHg 92%
    05:00 +13°C° 0 mm 4 mps 742 mmHg 89%
    06:00 +14°C° 0 mm 4 mps 742 mmHg 85%
    07:00 +15°C° 0 mm 4 mps 743 mmHg 82%
    08:00 +18°C° 0 mm 4 mps 743 mmHg 75%
    09:00 +19°C° 0 mm 5 mps 743 mmHg 68%
    10:00 +21°C° 0 mm 5 mps 743 mmHg 61%
    11:00 +22°C° 0 mm 5 mps 743 mmHg 58%
    12:00 +23°C° 0 mm 5 mps 743 mmHg 55%
    13:00 +24°C° 0 mm 6 mps 743 mmHg 53%
    14:00 +24°C° 0 mm 6 mps 742 mmHg 54%
    15:00 +24°C° 0 mm 6 mps 741 mmHg 55%
    16:00 +24°C° 0 mm 6 mps 741 mmHg 56%
    17:00 +22°C° 0 mm 5 mps 741 mmHg 62%
    18:00 +21°C° 0 mm 4 mps 740 mmHg 68%
    19:00 +19°C° 0 mm 3 mps 740 mmHg 73%
    20:00 +19°C° 0 mm 3 mps 740 mmHg 76%
    21:00 +18°C° 0 mm 4 mps 740 mmHg 78%
    22:00 +17°C° 0 mm 4 mps 740 mmHg 81%
    23:00 +17°C° 0.1 mm 4 mps 740 mmHg 83%

    26 April, Friday

    Time Temperature Precipitation Wind Pressure Humidity
    00:00 +15°C° 0.1 mm 4 mps 740 mmHg 85%
    01:00 +15°C° 0.1 mm 4 mps 739 mmHg 87%
    02:00 +14°C° 0.1 mm 4 mps 739 mmHg 88%
    03:00 +14°C° 0.1 mm 4 mps 739 mmHg 90%
    04:00 +13°C° 0.1 mm 4 mps 739 mmHg 91%
    05:00 +14°C° 0 mm 4 mps 739 mmHg 88%
    06:00 +15°C° 0 mm 4 mps 740 mmHg 85%
    07:00 +17°C° 0 mm 4 mps 740 mmHg 82%
    08:00 +19°C° 0 mm 4 mps 740 mmHg 74%
    09:00 +20°C° 0 mm 4 mps 740 mmHg 65%
    10:00 +22°C° 0 mm 3 mps 741 mmHg 57%
    11:00 +23°C° 0 mm 4 mps 741 mmHg 55%
    12:00 +23°C° 0 mm 4 mps 740 mmHg 54%
    13:00 +25°C° 0 mm 4 mps 740 mmHg 52%
    14:00 +22°C° 0.2 mm 5 mps 740 mmHg 58%
    15:00 +20°C° 0.2 mm 6 mps 741 mmHg 63%
    16:00 +18°C° 0.2 mm 8 mps 741 mmHg 69%
    17:00 +16°C° 0.1 mm 8 mps 741 mmHg 70%
    18:00 +13°C° 0.1 mm 8 mps 742 mmHg 72%
    19:00 +11°C° 0.1 mm 9 mps 742 mmHg 73%
    20:00 +10°C° 0 mm 8 mps 743 mmHg 73%
    21:00 +10°C° 0 mm 8 mps 743 mmHg 73%
    22:00 +9°C° 0 mm 8 mps 744 mmHg 73%
    23:00 +9°C° 0 mm 8 mps 744 mmHg 72%
    Show more